Regional Weather Roundup
Issued by NWS Portland, ME

Current Version | Previous Version | Text Only | Print | Product List | Glossary Off
Versions: 1 2 3 4 5 6 7 8 9 10 11 12 13 14 15 16 17 18 19 20 21 22 23 24 25 26 27 28 29 30 31 32 33 34 35 36 37 38 39 40 41 42 43 44 45 46 47 48 49 50

000
ASUS41 KGYX 301105
RWRGYX
WEATHER ROUNDUP FOR MAINE AND NEW HAMPSHIRE
NATIONAL WEATHER SERVICE GRAY ME
700 AM EDT SAT MAY 30 2015

MEZ002-005-006-010-012-015-018-020-021-024-026-027-029-301200-
MAINE

CITY           SKY/WX    TMP DP  RH WIND       PRES   REMARKS
PORTLAND       FOG       55  54  96 S3        30.18F VSB 3/4
SANFORD        CLOUDY    55  52  88 S3        30.19S VSB 1/2
BAR HARBOR     CLOUDY    54  54 100 S10       30.19R VSB 1/4
WISCASSET      FOG       55  55 100 VRB3      30.19F VSB 1/4
ROCKLAND       CLOUDY    54  52  94 S5        30.18R VSB 1/4
FRYEBURG       PTSUNNY   57  56  96 CALM      30.16S FOG
LEWISTONAUBURN CLOUDY    57  55  94 S7        30.16F
AUGUSTA        CLOUDY    58  57  97 S8        30.16F FOG
WATERVILLE     CLOUDY    59  54  82 S7        30.13S
BANGOR         CLOUDY    60  57  89 S10       30.16R
GREENVILLE       N/A     56  56 100 VRB5      30.11S
MILLINOCKET    CLOUDY    61  58  90 VRB3      30.13S
HOULTON        CLOUDY    60  57  89 S8        30.09R
PRESQUE ISLE   MOSUNNY   61  55  82 SE8       30.06F
FRENCHVILLE    CLOUDY    59  57  93 VRB7      30.03S
CARIBOU        MOSUNNY   61  57  87 S9        30.04F
$$

NHZ002-005-008-009-011-012-014-301200-
NEW HAMPSHIRE

CITY           SKY/WX    TMP DP  RH WIND       PRES   REMARKS
PORTSMOUTH     MOSUNNY   56  56  98 CALM      30.17F FOG
ROCHESTER      FOG       57  56  96 CALM      30.17F VSB 1/4
NASHUA         SUNNY     62  58  87 SE3       30.19S
MANCHESTER     MOSUNNY   63  57  81 S6        30.16S
CONCORD        SUNNY     62  58  86 S7        30.17S
LACONIA        SUNNY     61  57  88 CALM      30.15S
PLYMOUTH       FOG       57  57 100 CALM      30.17S VSB 3/4
BERLIN         CLOUDY    57  55  93 CALM      30.13F FOG
WHITEFIELD     PTSUNNY   57  53  86 CALM      30.13F
JAFFREY        SUNNY     61  57  87 W3        30.20S
KEENE          SUNNY     61  55  82 SW3       30.19S
LEBANON        SUNNY     63  59  87 CALM      30.14S
MT WASHINGTON  FOG       48  48 100 W39         N/A  VSB 0
$$

VTZ005-007-008-301200-
VERMONT

CITY           SKY/WX    TMP DP  RH WIND       PRES   REMARKS
ST JOHNSBURY     N/A     65  58  78 MISG      30.10F
MONTPELIER     SUNNY     64  58  80 CALM      30.15F
BURLINGTON     PTSUNNY   71  55  56 S21G31    30.04F
$$

MAZ007-012-024-CTZ003-RIZ002-NYZ038-NYZ072-301200-
SOUTHERN NEW ENGLAND AND NY

CITY           SKY/WX    TMP DP  RH WIND       PRES   REMARKS
BOSTON         MOSUNNY   59  57  93 S9        30.21S
WORCESTER      SUNNY     64  58  80 SW12      30.21S
NANTUCKET      PTSUNNY   62  60  93 S9        30.26R
PROVIDENCE     FOG       60  59  96 S6        30.24R VSB 3/4
HARTFORD       PTSUNNY   62  59  90 S7        30.20R
ALBANY         MOSUNNY   68  57  68 S16       30.14S
NEW YORK CITY  MOSUNNY   68  62  81 S7        30.21R
$$

ANZ081-ANZ082-ANZ150-NHZ014-MEZ023>029-301200-
COASTAL MARINE OBSERVATIONS

STATION/POSITION TIME  TEMP    WIND        PRES    WAVE
                       AIR SEA DIR/SP/G            HT/PER
                 (UTC) (F)     (DEG/KT/KT) (MB)    (FT/S)
MOUNT DESERT ROC 1100   47     170/ 11/ 11   N/A
MATINICUS ROCK   1000   50     200/ 12/ 12   N/A
ISLE OF SHOALS   1000   54     220/  6/  7   N/A
JEFFREYS LEDGE   1003      51                N/A     2/ 9
CASHES LEDGE BUO 1050   53 52                N/A     2/ 9
GEORGES BANK BUO 0950   57 51  160/  4/  4   N/A     3/10
$$

.............KEY..............
   WCI - WIND CHILL
   TC  - TEMPERATURE IN CELSIUS
   VSB - VISIBILITY IN MILES
   HX  - HEAT INDEX
   FAIR- INDICATES FEW OR NO CLOUDS BELOW 12,000 FT, WITH NO
         SIGNIFICANT WEATHER AND/OR OBSTRUCTIONS TO VISIBILITY.




USA.gov is the U.S. government's official web portal to all federal, state and local government web resources and services.